Stations météo

réclame
Mon MeteoGroup
Angelholm, Suède (2607): Température de l'air & dewpoint: 14.01.2020 08:00:00 - 20.01.2020 08:00:00 (CET)Angelholm, Suède (2607): Vitesse du vent: 14.01.2020 08:00:00 - 20.01.2020 08:00:00 (CET)Angelholm, Suède (2607): Direction du vent: 14.01.2020 08:00:00 - 20.01.2020 08:00:00 (CET)Angelholm, Suède (2607): reduced air pressure: 14.01.2020 08:00:00 - 20.01.2020 08:00:00 (CET)Angelholm, Suède (2607): visibility: 14.01.2020 08:00:00 - 20.01.2020 08:00:00 (CET)
Date & Time tt [°C] td [°C] ff [km/h] ff [knt] dd ppp [hPa] vv [km]
20.01.2020 08:00:00 5,0 4,0 21 11 W - 10
20.01.2020 07:00:00 5,0 4,1 18 10 W 1039,2 10
20.01.2020 06:00:00 5,0 4,1 18 10 WNW 1039,1 10
20.01.2020 05:00:00 4,4 4,1 16 9 W 1039,1 10
20.01.2020 04:00:00 -0,2 -0,5 0 0 N 1039,4 8
20.01.2020 03:00:00 -1,7 -2,0 0 0 N 1039,7 7
20.01.2020 02:00:00 -0,9 -1,2 5 3 SSE 1039,4 8
20.01.2020 01:00:00 -1,6 -1,9 0 0 N 1039,2 9
20.01.2020 00:00:00 -1,8 -2,2 0 0 N 1038,7 10
19.01.2020 23:00:00 -1,6 -2,0 2 1 - 1039,0 3,6
19.01.2020 22:00:00 -0,8 -1,4 0 0 N 1038,0 9
19.01.2020 21:00:00 3,1 1,6 5 3 WNW 1037,7 10
19.01.2020 20:00:00 2,4 1,5 11 6 NNW 1037,1 10
19.01.2020 19:00:00 1,4 0,5 11 6 NNW 1036,4 10
19.01.2020 18:00:00 2,4 1,8 11 6 NNW 1035,2 10
19.01.2020 17:00:00 3,5 2,3 13 7 WNW 1034,3 10
19.01.2020 16:00:00 4,5 3,0 13 7 WNW 1033,4 10
19.01.2020 15:00:00 5,8 3,6 13 7 NW 1032,5 10
19.01.2020 14:00:00 6,2 3,9 15 8 NW 1031,6 10
19.01.2020 13:00:00 6,2 4,0 16 9 NW 1031,0 10
19.01.2020 12:00:00 6,1 4,1 13 7 NW 1030,1 10
19.01.2020 11:00:00 5,2 4,6 8 4 NNW 1029,4 10
19.01.2020 10:00:00 2,8 2,2 4 2 NW 1028,4 8
19.01.2020 09:00:00 2,8 1,9 9 5 WNW 1026,9 10
19.01.2020 08:00:00 4,7 3,5 13 7 WNW 1025,9 10
19.01.2020 07:00:00 5,2 4,0 15 8 W 1024,6 10
19.01.2020 06:00:00 5,2 3,9 13 7 WNW 1023,5 10
19.01.2020 05:00:00 5,2 3,5 18 10 W 1022,8 10
19.01.2020 04:00:00 5,3 3,3 21 11 WNW 1021,8 10
19.01.2020 03:00:00 5,3 3,3 21 11 W 1021,2 10
19.01.2020 02:00:00 5,1 3,1 24 13 W 1020,2 10
19.01.2020 01:00:00 5,2 3,2 22 12 W 1019,3 10
19.01.2020 00:00:00 5,2 3,1 26 14 W 1018,4 10
18.01.2020 23:00:00 5,4 3,2 24 13 W 1017,7 10
18.01.2020 22:00:00 5,8 4,0 28 15 W 1016,9 10
18.01.2020 21:00:00 5,8 4,0 28 15 W 1016,3 10
18.01.2020 20:00:00 5,9 3,9 29 16 W 1015,7 10
18.01.2020 19:00:00 5,8 3,6 31 17 W 1015,1 10
18.01.2020 18:00:00 5,6 3,6 35 19 W 1014,3 10
18.01.2020 17:00:00 5,6 3,9 29 16 W 1013,5 10
18.01.2020 16:00:00 5,7 3,5 34 18 W 1012,9 10
18.01.2020 15:00:00 6,0 2,6 31 17 W 1012,4 10
18.01.2020 14:00:00 6,0 2,8 29 16 W 1012,3 10
18.01.2020 13:00:00 5,4 3,4 26 14 WSW 1011,9 10
18.01.2020 12:00:00 5,8 2,6 29 16 WSW 1011,6 10
18.01.2020 11:00:00 5,8 2,4 26 14 WSW 1012,0 10
18.01.2020 10:00:00 5,9 2,5 24 13 WSW 1011,8 10
18.01.2020 09:00:00 5,7 3,7 22 12 SW 1011,4 10
18.01.2020 08:00:00 5,7 3,2 18 10 SW 1010,8 10
18.01.2020 07:00:00 6,2 3,7 21 11 SW 1010,7 10
18.01.2020 06:00:00 6,6 4,9 16 9 WSW 1010,2 10
18.01.2020 05:00:00 6,9 5,5 21 11 WSW 1010,2 10
18.01.2020 04:00:00 6,2 5,8 13 7 SSW 1009,8 2,5
18.01.2020 03:00:00 5,6 5,2 11 6 SSW 1009,8 2,0
18.01.2020 02:00:00 5,2 4,6 11 6 S 1009,6 3,5
18.01.2020 01:00:00 5,1 4,1 13 7 SSW 1009,6 6
18.01.2020 00:00:00 4,7 3,5 13 7 SSE 1009,7 7
17.01.2020 23:00:00 4,6 3,3 16 9 S 1010,1 9
17.01.2020 22:00:00 4,2 2,9 16 9 SSE 1010,8 9
17.01.2020 21:00:00 4,0 2,7 15 8 S 1011,6 10
17.01.2020 20:00:00 4,7 2,7 16 9 S 1012,0 10
17.01.2020 19:00:00 4,8 3,1 24 13 S 1012,0 10
17.01.2020 18:00:00 5,2 3,2 18 10 S 1012,9 10
17.01.2020 17:00:00 5,5 3,3 15 8 S 1013,2 10
17.01.2020 16:00:00 6,6 4,4 21 11 S 1013,1 10
17.01.2020 15:00:00 7,9 4,8 21 11 S 1014,0 10
17.01.2020 14:00:00 8,2 5,1 24 13 S 1014,6 10
17.01.2020 13:00:00 7,6 4,9 26 14 S 1015,7 10
17.01.2020 12:00:00 7,1 4,4 22 12 S 1016,6 10
17.01.2020 11:00:00 6,1 4,1 28 15 S 1017,4 10
17.01.2020 10:00:00 5,6 3,9 24 13 S 1017,5 10
17.01.2020 09:00:00 4,7 3,5 24 13 S 1017,9 10
17.01.2020 08:00:00 4,3 3,1 26 14 S 1018,2 9
17.01.2020 07:00:00 3,8 2,9 21 11 S 1018,4 10
17.01.2020 06:00:00 4,2 3,0 21 11 S 1019,4 10
17.01.2020 05:00:00 4,0 2,8 18 10 S 1020,1 10
17.01.2020 04:00:00 4,1 2,9 18 10 S 1020,8 10
17.01.2020 03:00:00 4,5 3,2 22 12 S 1021,3 10
17.01.2020 02:00:00 3,8 2,6 18 10 SSE 1022,2 10
17.01.2020 01:00:00 3,7 2,8 18 10 S 1022,8 10
17.01.2020 00:00:00 3,5 2,9 13 7 S 1023,4 5
16.01.2020 23:00:00 4,0 3,1 15 8 S 1024,1 5
16.01.2020 22:00:00 4,7 3,5 11 6 SSE 1024,3 10
16.01.2020 21:00:00 4,9 3,4 13 7 SW 1024,7 10
16.01.2020 20:00:00 5,3 3,6 15 8 SW 1024,7 10
16.01.2020 19:00:00 4,5 3,3 8 4 SSW 1024,3 10
16.01.2020 18:00:00 4,6 3,3 5 3 - 1024,2 10
16.01.2020 17:00:00 6,1 3,8 18 10 WSW 1023,8 10
16.01.2020 16:00:00 6,5 4,2 18 10 W 1023,8 10
16.01.2020 15:00:00 7,2 4,3 21 11 W 1023,5 10
16.01.2020 14:00:00 7,3 4,3 22 12 W 1022,9 10
16.01.2020 13:00:00 7,3 4,3 28 15 W 1022,6 10
16.01.2020 12:00:00 7,0 4,3 24 13 W 1022,2 10
16.01.2020 11:00:00 6,9 4,2 22 12 WSW 1021,8 10
16.01.2020 10:00:00 6,7 4,0 22 12 WSW 1020,6 10
16.01.2020 09:00:00 6,9 3,9 24 13 WSW 1019,6 10
16.01.2020 08:00:00 6,9 4,0 21 11 W 1018,8 10
16.01.2020 07:00:00 6,5 4,2 16 9 WSW 1017,9 10
16.01.2020 06:00:00 6,3 4,1 16 9 WSW 1016,9 10
16.01.2020 05:00:00 6,1 4,1 21 11 SW 1015,8 10
16.01.2020 04:00:00 6,1 3,9 21 11 WSW 1015,3 10
16.01.2020 03:00:00 6,5 3,8 29 16 W 1014,4 10
16.01.2020 02:00:00 6,4 4,1 29 16 W 1013,5 10
16.01.2020 01:00:00 6,1 3,8 22 12 WSW 1012,5 10
16.01.2020 00:00:00 5,7 3,2 21 11 WSW 1011,3 10
15.01.2020 23:00:00 5,7 4,0 13 7 W 1010,2 10
15.01.2020 22:00:00 5,3 4,3 13 7 NW 1009,0 10
15.01.2020 21:00:00 5,7 4,8 24 13 NNW 1007,5 10
15.01.2020 20:00:00 8,8 7,4 22 12 WSW 1005,2 8
15.01.2020 19:00:00 8,9 7,3 29 16 WSW 1005,1 10
15.01.2020 18:00:00 9,1 7,5 29 16 SW 1004,8 10
15.01.2020 17:00:00 8,8 7,7 26 14 WSW 1004,6 4,8
15.01.2020 16:00:00 9,5 7,1 24 13 SW 1004,4 10
15.01.2020 15:00:00 9,8 7,4 18 10 WSW 1004,3 10
15.01.2020 14:00:00 9,7 7,6 28 15 WSW 1003,9 10
15.01.2020 13:00:00 9,7 7,8 28 15 WSW 1003,7 10
15.01.2020 12:00:00 9,9 8,0 31 17 WSW 1003,2 10
15.01.2020 11:00:00 10,2 8,1 37 20 WSW 1002,5 10
15.01.2020 10:00:00 9,7 8,6 31 17 SW 1001,9 5
15.01.2020 09:00:00 9,5 8,7 29 16 SW 1001,3 3,1
15.01.2020 08:00:00 9,6 8,8 26 14 SW 1000,6 3,2
15.01.2020 07:00:00 9,7 8,6 29 16 SW 1000,3 3,4
15.01.2020 06:00:00 9,9 8,5 31 17 SW 999,7 7
15.01.2020 05:00:00 10,4 8,3 35 19 SW 999,1 10
15.01.2020 04:00:00 10,4 8,3 28 15 SW 998,6 6
15.01.2020 03:00:00 9,3 7,9 29 16 SSW 998,5 4,8
15.01.2020 02:00:00 9,1 7,2 28 15 SSW 998,5 10
15.01.2020 01:00:00 8,2 6,8 31 17 SSW 998,4 10
15.01.2020 00:00:00 7,4 6,3 35 19 SSW 998,8 4,9
14.01.2020 23:00:00 7,4 6,3 29 16 SSW 999,0 4,6
14.01.2020 22:00:00 7,5 6,4 28 15 SSW 999,9 9
14.01.2020 21:00:00 6,5 5,1 18 10 SSW 1001,2 10
14.01.2020 20:00:00 6,2 4,4 18 10 SSW 1002,0 10
14.01.2020 19:00:00 6,4 4,2 18 10 SSW 1002,3 10
14.01.2020 18:00:00 6,3 4,3 18 10 SW 1002,4 10
14.01.2020 17:00:00 6,6 3,9 15 8 WSW 1002,3 10
14.01.2020 16:00:00 7,1 4,2 21 11 WSW 1001,6 10
14.01.2020 15:00:00 7,2 5,3 22 12 W 1001,4 10
14.01.2020 14:00:00 7,6 6,1 21 11 WSW 1000,7 10
14.01.2020 13:00:00 6,9 6,2 21 11 SW 999,8 10
14.01.2020 12:00:00 6,1 5,4 31 17 SSW 999,2 10
14.01.2020 11:00:00 5,5 4,8 31 17 SSW 999,5 8
14.01.2020 10:00:00 5,2 4,3 31 17 SSW 999,9 8
14.01.2020 09:00:00 5,0 4,0 31 17 SSW 1000,4 8
14.01.2020 08:00:00 5,1 3,1 31 17 S 1001,1 10

tt = Température de l'air
td = dewpoint
ff = Vitesse du vent
dd = Direction du vent
ppp = reduced air pressure
vv = visibility

stations d'obs. à proximité